AirNav   Air Wisconsin pilot careers
 
 858 users online  

50G Howard Nixon Memorial Airport
Chesaning, Michigan, USA

GOING TO CHESANING?


FAA INFORMATION EFFECTIVE 13 SEPTEMBER 2018

Location

FAA Identifier: 50G
Lat/Long: 43-10-55.1144N / 084-07-59.8521W
43-10.918573N / 084-07.997535W
43.1819762 / -84.1332923
(estimated)
Elevation: 644 ft. / 196.3 m (surveyed)
Variation: 05W (1985)
From city: 1 mile W of CHESANING, MI
Time zone: UTC -4 (UTC -5 during Standard Time)
Zip code: 48616

Airport Operations

Airport use: Open to the public
Activation date: 09/1946
Control tower: no
ARTCC: CLEVELAND CENTER
FSS: LANSING FLIGHT SERVICE STATION
NOTAMs facility: LAN (NOTAM-D service available)
Attendance: IREG
Wind indicator: lighted
Segmented circle: yes
Lights: ACTVT LIRL RY 09/27 AND RY 18/36 - CTAF.

Airport Communications

CTAF: 122.9
WX AWOS-3 at RNP (11 nm S): 118.025 (989-729-2967)
WX AWOS-3 at HYX (19 nm NE): 118.325 (989-752-3408)

Nearby radio navigation aids

VOR radial/distance  VOR name  Freq  Var
MBSr190/21.1SAGINAW VOR/DME112.9003W
FNTr313/21.3FLINT VORTAC116.9006W
MOPr140/37.3MOUNT PLEASANT VOR/DME110.6005W

Airport Services

Parking: tiedowns

Runway Information

Runway 9/27

Dimensions: 2800 x 150 ft. / 853 x 46 m
Surface: turf, in good condition
Runway edge lights: low intensity
Runway edge markings: RY 18/36 & 09 /27 MARKED WITH 3 FT YELLOW CONES INCLUDING DSPLCD THLDS.
RUNWAY 9  RUNWAY 27
Latitude: 43-10.785167N43-10.800833N
Longitude: 084-08.374500W084-07.745000W
Elevation: 643.0 ft.641.0 ft.
Traffic pattern: leftleft
Displaced threshold: no800 ft.
Runway end identifier lights: yesyes
Obstructions: 15 ft. trees, 306 ft. from runway, 20:1 slope to clear25 ft. trees, 180 ft. from runway, 7:1 slope to clear
APCH RATIO 20:1 TO DSPLCD THLD OVER 55 FT TREES, 1104 FT DSTC, 75 FT L.

Runway 18/36

Dimensions: 2582 x 150 ft. / 787 x 46 m
Surface: turf, in good condition
Runway edge lights: low intensity
RUNWAY 18  RUNWAY 36
Latitude: 43-11.267167N43-10.842333N
Longitude: 084-07.921167W084-07.938965W
Elevation: 644.0 ft.
Traffic pattern: leftleft
Displaced threshold: 400 ft.796 ft.
Runway end identifier lights: yesyes
Obstructions: 50 ft. trees, 408 ft. from runway, 80 ft. right of centerline, 8:1 slope to clear
APCH RATIO 14:1 TO DSPLCD THLD, OVER 57 FT TREES, 808 FT DSTC, 80 FT R.
46 ft. trees, 234 ft. from runway, 5:1 slope to clear
APCH RATIO 20:1 TO DSPLCD THLD, OVER 52 FT TREES 1053 FT DSTC, 0 B.

Airport Ownership and Management from official FAA records

Ownership: Publicly-owned
Owner: VILLAGE OF CHESANING
204 S 4TH ST
CHESANING, MI 48616
Phone 989-845-3800
VILLAGE ADMIN -TROY FELYMAN; PHONE 989-845-3800.
Manager: CHRISTINE HARTGES
1100 W BROAD ST
CHESANING, MI 48616
Phone (989) 295-6992
ASST. MGR DAVID CASWELL 989-413-0432

Airport Operational Statistics

Aircraft based on the field: 17
Single engine airplanes: 17
    
Aircraft operations: avg 65/week *
50% transient general aviation
50% local general aviation
* for 12-month period ending 31 December 2016

Additional Remarks

NO WINTER SNOW REMOVAL.

Instrument Procedures

There are no published instrument procedures at 50G.

Some nearby airports with instrument procedures:

KRNP - Owosso Community Airport (11 nm S)
KHYX - Saginaw County H W Browne Airport (19 nm NE)
KMBS - MBS International Airport (21 nm N)
KFNT - Bishop International Airport (21 nm SE)
3CM - James Clements Municipal Airport (24 nm NE)
 
Loc | Ops | Rwys | IFR | FBO | Links
Com | Nav | Svcs | Stats | Notes


 
Area around 50G (Howard Nixon Memorial Airport)
 
Road maps at: MapQuest Bing Google
 
Aerial photo
WARNING: Photo may not be current or correct
Aerial photo of 50G (Howard Nixon Memorial Airport)
Photo by Ren Wall

Do you have a better or more recent aerial photo of Howard Nixon Memorial Airport that you would like to share? If so, please send us your photo.

 
Sectional chart

 
Airport distance calculator
Flying to Howard Nixon Memorial Airport? Find the distance to fly.

From to 50G

Sunrise and sunset
Times for 20-Sep-2018
 Local
(UTC-4)
 Zulu
(UTC)
Morning civil twilight06:5410:54
Sunrise07:2311:23
Sunset19:3723:37
Evening civil twilight20:0600:06

Current date and time
Zulu (UTC)  21-Sep-2018 02:44:10
Local (UTC-4)  20-Sep-2018 22:44:10
 
METAR
KRNP 
11nm S 
210235Z AUTO 16008KT 10SM CLR 22/21 A2989 RMK AO2 T02230210
KHYX 
19nm NE 
210235Z AUTO 15009KT 10SM SCT070 21/19 A2988 RMK AO2
KFNT 
21nm SE 
210153Z 16006KT 8SM CLR 21/19 A2993 RMK AO2 SLP132 T02060194
KMBS 
21nm N 
210153Z 16010KT 7SM CLR 22/20 A2990 RMK AO2 SLP121 T02170200
TAF
KFNT 
21nm SE 
202119Z 2021/2118 16008KT P6SM SCT025 BKN040 OVC070 FM210000 14007KT P6SM SCT070 SCT150 FM210400 20011KT P6SM SCT070 SCT150 WS020/20045KT FM211400 23018G28KT P6SM VCSH BKN100
KMBS 
21nm N 
202121Z 2021/2118 14008KT P6SM BKN015 OVC070 FM210000 14007KT P6SM SCT070 SCT150 FM210400 20011KT P6SM SCT070 SCT150 WS020/20045KT FM211400 23018G28KT P6SM VCSH BKN100
NOTAMs
Click for the latest NOTAMs
NOTAMs are issued by the DoD/FAA and will open in a separate window not controlled by AirNav.

 

 
 

Would you like to see your business listed on this page?

 If your business provides an interesting product or service to pilots, flight crews, aircraft, or users of the Howard Nixon Memorial Airport, you should consider listing it here.  To start the listing process, click on the button below
 
Add a business
 

Other Pages about Howard Nixon Memorial Airport

Page from the Michigan Airport Directory (PDF)
 
Update a link
 
Copyright © AirNav, LLC. All rights reserved. Privacy Policy  Contact